Regional Weather Roundup
Issued by NWS

Home | Current Version | Previous Version | Graphics & Text | Print | Product List | Glossary On
Versions: 1 2 3 4 5 6 7 8 9 10 11 12 13 14 15 16 17 18 19 20 21 22 23 24 25 26 27 28 29 30 31 32 33 34 35 36 37 38 39 40 41 42 43 44 45 46 47 48 49 50
109
ASUS43 KIND 271009
RWRIN

WEATHER ROUNDUP FOR INDIANA
NATIONAL WEATHER SERVICE INDIANAPOLIS IN
600 AM EDT SAT AUG 27 2016

NOTE: "FAIR" INDICATES FEW OR NO CLOUDS BELOW 12,000 FEET WITH NO
SIGNIFICANT WEATHER AND/OR OBSTRUCTIONS TO VISIBILITY.

* - STATION DOES NOT REPORT WEATHER SUCH AS PRECIPITATION OR FOG.

+ - STATION NOT QUALITY CONTROLLED BY THE NATIONAL WEATHER SERVICE.
    USE DATA WITH CAUTION...ESPECIALLY DEWPOINT AND RELATIVE
    HUMIDITY OBSERVATIONS.

INZ001>003-010>013-019-020-271100-
NORTHWEST INDIANA

CITY           SKY/WX    TMP DP  RH WIND       PRES   REMARKS
GARY /AIRPORT/ TSTM      70  70 100 NW6       30.07R
KNOX *+        MOCLDY    68  54  60 CALM      30.05F
LA PORTE +     MOCLDY    71  71 100 E5        30.07F
MICHIGAN CITY+ CLOUDY    68  66  94 MISG      30.07S
MONTICELLO +   CLOUDY    71  67  87 SE3       30.05S
RENSSELAER +   CLOUDY    72  70  94 S6        30.06S
VALPARAISO     CLOUDY    70  66  87 NE5       30.05F

$$

LMZ046-743>745-271100-
SOUTHERN LAKE MICHIGAN

STATION/POSITION TIME  TEMP    WIND        PRES    WAVE
                       AIR SEA DIR/SP/G            HT
                 (UTC) (F)     (DEG/KT/KT) (MB)    (FT)
BURNS HARBOR     0905   70      CALM  /  9 1018.6S
MICHIGAN CITY    0900   70      70/  5/  6   N/A
5NW MICH CITY    1000   71 74  110/  8/ 10   N/A     2

$$

INZ004-005-014>016-021>024-271100-
NORTH CENTRAL INDIANA

CITY           SKY/WX    TMP DP  RH WIND       PRES   REMARKS
GOSHEN         PTCLDY    70  64  81 E6        30.09F
LOGANSPORT +   CLOUDY    70  68  94 NE3       30.07F
PERU/GRISSOM   CLOUDY    72  72 100 E5        30.06F
ROCHESTER +    CLOUDY    73  70  88 SE6       30.08S
SOUTH BEND     MOCLDY    70  65  84 E6        30.07F
WARSAW +       PTCLDY    70  70 100 SE5       30.09S

$$

INZ006>009-017-018-025>027-271100-
NORTHEAST INDIANA

CITY           SKY/WX    TMP DP  RH WIND       PRES   REMARKS
ANGOLA *+      CLEAR     70  61  73 SE7       30.11F
AUBURN +       MOCLDY    68  63  83 E5        30.11S
FORT WAYNE     MOCLDY    71  64  78 SE7       30.10S
HUNTINGTON +   MOCLDY    71  68  89 SE6       30.09S

$$

INZ028-029-035-036-043>045-051>053-271100-
WEST CENTRAL INDIANA

CITY           SKY/WX    TMP DP  RH WIND       PRES   REMARKS
CRAWFORDSVL +  PTCLDY    67  67 100 SE3       30.06F
GREENCASTLE +  CLOUDY    70  70 100 CALM      30.07S
LAFAYETTE      CLOUDY    71  70  96 CALM      30.06R
TERRE HAUTE    CLOUDY    71  69  93 E5        30.05F

$$

INZ030>032-037>040-046>048-054>057-064-065-271100-
CENTRAL INDIANA

CITY           SKY/WX    TMP DP  RH WIND       PRES   REMARKS
INDIANAPOLIS   CLOUDY    71  69  93 CALM      30.06S
-EAGLE CREEK   MOCLDY    71  69  93 E3        30.05F
KOKOMO *+      CLOUDY    70  70 100 SE7       30.07F
MARION +       CLOUDY    69  68  96 SE6       30.09F FOG
MT COMFORT *+  PTCLDY    68  68 100 NE3       30.07F
SHELBYVILLE    PTCLDY    71  68  90 E5        30.06F
ZIONSVILLE +   PTCLDY    68  68  98 E3        30.08F

$$

INZ033-034-041-042-049-050-058-059-271100-
EAST CENTRAL INDIANA

CITY           SKY/WX    TMP DP  RH WIND       PRES   REMARKS
MUNCIE         PTCLDY    70  68  93 E6        30.09F FOG

$$

INZ060-061-067>069-081>083-085>088-271100-
SOUTHWEST INDIANA

CITY           SKY/WX    TMP DP  RH WIND       PRES   REMARKS
EVANSVILLE     CLOUDY    73  71  93 E5        30.04S
HUNTINGBURG *+ CLOUDY    73  70  88 E3        30.07R
WASHINGTON +   LGT RAIN  73  73 100 MISG      30.05R

$$

INZ062-063-066-070>080-084-089>092-271100-
SOUTH CENTRAL AND SOUTHEAST INDIANA

CITY           SKY/WX    TMP DP  RH WIND       PRES   REMARKS
BLOOMINGTON    CLOUDY    73  69  87 SE3       30.06F
MADISON *+     CLOUDY    72  70  94 CALM      30.10S

$$





USA.gov is the U.S. government's official web portal to all federal, state and local government web resources and services.